Temp
50 49 49 49 49 49 48 48 48 48 48 49 49 50 50 50 51 52 52 53 53 53
49 49 49 49 48 48 48 48 48 47 47 48 48 49 49 49 49 50 50 51 51 51
48 49 49 48 48 47 48 47 47 47 47 47 48 48 48 48 49 48 49 50 50 50
47 48 48 48 48 47 47 47 46 46 46 46 47 47 47 47 47 46 47 48 48 48
47 47 47 47 47 47 47 47 46 46 46 46 46 46 46 45 47 46 45 46 46 45
45 45 46 46 47 47 46 46 46 45 45 45 45 45 45 45 45 45 45 44 44 44
44 44 45 45 46 46 46 45 45 45 45 44 45 45 44 44 44 44 44 44 43 44
43 43 44 44 44 44 45 45 44 44 44 44 44 45 44 44 43 43 43 43 43 44
42 42 42 42 42 43 43 43 43 43 43 43 44 45 46 47 45 44 43 43 44 44
41 40 41 41 41 41 41 41 41 41 41 41 42 43 45 46 46 43 43 43 43 43
40 39 40 39 39 39 40 39 39 39 39 39 41 43 44 45 45 43 43 42 43 42
39 38 38 38 38 38 38 38 38 38 38 38 39 41 43 44 42 41 41 41 41 41
39 38 38 38 37 38 37 37 37 36 35 36 38 40 42 43 41 39 40 41 40 41
39 38 38 38 37 37 37 36 36 36 38 37 38 39 41 43 41 39 39 38 39 40
MSLP
1017.74 1017.52 1017.29 1017.15 1017.16 1017.18 1017.28 1017.39 1017.48 1017.49 1017.38 1017.18 1017.04 1016.89 1016.75 1016.61 1016.45 1016.24 1015.95 1015.68 1015.49 1015.33
1017.55 1017.25 1017.01 1016.95 1016.96 1016.92 1016.93 1016.94 1016.95 1017.06 1017.09 1017.01 1016.94 1016.85 1016.73 1016.54 1016.37 1016.23 1016.06 1015.85 1015.68 1015.45
1017.47 1017.09 1016.80 1016.65 1016.64 1016.70 1016.67 1016.60 1016.51 1016.47 1016.45 1016.42 1016.40 1016.33 1016.29 1016.24 1016.19 1016.12 1015.93 1015.75 1015.58 1015.37
1017.31 1016.87 1016.57 1016.44 1016.37 1016.38 1016.35 1016.26 1016.25 1016.29 1016.35 1016.26 1016.03 1015.94 1015.96 1015.86 1015.76 1015.66 1015.50 1015.43 1015.37 1015.21
1017.56 1017.15 1016.79 1016.53 1016.34 1016.24 1016.14 1016.12 1016.10 1016.04 1015.97 1015.93 1015.89 1015.86 1015.81 1015.70 1015.57 1015.46 1015.31 1015.22 1015.17 1014.92
1017.74 1017.38 1017.03 1016.74 1016.51 1016.31 1016.12 1015.93 1015.76 1015.65 1015.53 1015.43 1015.45 1015.46 1015.39 1015.32 1015.19 1015.14 1015.01 1014.87 1014.79 1014.68
1017.83 1017.52 1017.20 1016.82 1016.51 1016.34 1016.16 1015.93 1015.67 1015.45 1015.22 1015.02 1014.87 1014.73 1014.64 1014.62 1014.50 1014.35 1014.29 1014.34 1014.29 1014.18
1018.01 1017.69 1017.33 1016.94 1016.61 1016.24 1015.93 1015.69 1015.59 1015.43 1015.21 1014.99 1014.76 1014.38 1014.14 1014.03 1013.96 1013.93 1013.78 1013.69 1013.65 1013.63
1017.96 1017.67 1017.31 1016.91 1016.61 1016.23 1015.93 1015.59 1015.32 1014.98 1014.82 1014.62 1014.30 1013.91 1013.63 1013.38 1013.21 1013.23 1013.28 1013.14 1013.00 1012.92
1017.76 1017.47 1017.25 1016.95 1016.61 1016.22 1015.82 1015.63 1015.39 1015.09 1014.81 1014.40 1013.97 1013.53 1013.27 1013.01 1012.69 1012.52 1012.37 1012.30 1012.23 1012.15
1017.38 1017.25 1017.12 1016.89 1016.57 1016.31 1015.96 1015.66 1015.41 1015.03 1014.65 1014.44 1013.87 1013.46 1013.00 1012.65 1012.34 1012.15 1011.96 1011.78 1011.58 1011.44
1016.97 1016.82 1016.73 1016.61 1016.47 1016.26 1015.92 1015.58 1015.15 1014.84 1014.51 1014.08 1013.64 1013.17 1012.62 1012.46 1012.33 1011.95 1011.59 1011.38 1011.32 1011.13
1016.77 1016.74 1016.54 1016.29 1016.03 1015.82 1015.66 1015.31 1015.01 1014.51 1014.20 1013.87 1013.18 1012.80 1012.51 1011.92 1011.61 1011.29 1011.06 1010.88 1010.57 1010.55
1016.28 1016.14 1015.95 1015.72 1015.49 1015.24 1015.07 1014.85 1014.45 1014.01 1013.50 1013.22 1012.92 1012.29 1011.84 1011.55 1011.30 1010.92 1010.51 1010.25 1009.96 1009.73
Wind_Speed
6 4 5 5 4 4 3 3 4 5 5 5 5 5 4 4 4 5 5 7 7 6
7 6 5 5 4 3 4 3 4 4 5 5 6 6 5 4 5 5 5 6 7 5
8 6 5 4 5 5 5 5 5 5 5 5 5 5 5 5 5 6 5 5 7 6
8 7 5 4 4 5 4 5 5 6 6 6 6 5 6 6 7 7 7 7 7 8
8 8 6 6 5 4 5 5 6 5 6 6 6 6 7 7 7 7 8 8 8 9
8 8 8 7 7 5 5 6 5 5 6 7 7 7 7 7 8 8 9 8 8 9
8 8 8 7 6 6 5 6 6 6 6 7 7 7 8 8 9 9 9 9 9 9
7 7 7 7 7 6 5 5 6 6 6 6 6 6 7 8 8 9 9 9 9 10
6 6 6 6 7 6 6 6 5 5 5 7 5 10 13 12 8 9 9 10 10 10
5 6 6 6 7 7 7 6 7 7 6 7 8 12 14 14 8 8 9 10 10 9
4 5 6 6 6 6 4 6 6 7 7 7 7 14 14 14 9 8 9 10 11 11
4 5 5 5 6 6 4 5 5 6 7 7 8 12 12 10 7 8 10 8 9 10
4 5 6 6 6 3 4 6 6 6 5 8 9 11 12 9 4 7 7 8 8 13
5 5 6 6 3 5 6 6 6 8 8 7 7 10 13 11 6 6 6 7 7 6
Wind_Direction
308 292 285 274 266 255 251 274 292 289 284 279 274 278 283 279 280 285 290 276 274 280
327 313 297 289 259 245 243 248 250 256 272 275 274 274 279 277 281 277 285 290 294 295
316 313 299 281 267 253 259 247 246 243 242 251 253 255 256 267 275 281 282 276 284 267
328 325 306 284 277 264 262 251 254 262 271 268 263 259 259 258 261 256 259 259 265 269
342 341 332 322 312 294 278 278 277 275 269 267 266 271 266 269 270 265 263 265 264 261
354 353 349 338 327 316 302 294 286 271 265 268 266 270 263 259 266 265 262 262 261 264
352 349 345 340 336 324 311 296 290 278 271 267 268 263 260 257 257 257 258 256 253 253
338 341 344 347 340 334 330 316 307 305 302 294 283 274 267 261 260 262 264 259 254 250
332 335 339 342 342 342 339 335 328 320 310 307 297 290 286 282 268 262 265 270 268 259
323 325 330 332 337 341 337 332 329 324 324 313 300 299 299 292 278 261 258 261 266 269
306 311 316 323 327 328 322 332 325 320 320 317 310 317 316 311 296 285 274 265 264 264
287 292 301 306 312 308 296 311 309 309 313 316 308 318 322 323 306 297 290 280 271 266
280 288 297 293 294 270 284 295 304 302 280 296 298 304 312 316 291 291 295 290 270 266
267 265 264 279 251 272 286 294 293 296 295 289 280 292 300 298 282 273 282 282 287 276